Flag for Russia Weather past 2 weeks in Saint-Petersburg, Russia

Now
45 °F

Fog.


Feels Like: 43 °F
Forecast: 47 / 60 °F
Wind: 3 mph from West

Location: St. Petersburg

Current Time: Apr 27, 2015 at 8:08:43 AM

Latest Report: Apr 27, 2015 at 7:30 AM


Visibility: 3 mi

Pressure: 29.71 "Hg

Humidity: 100%

Dew point: 45 °F

Location of Saint-PetersburgLocation

Historic Weather in Saint-Petersburg — Graph

°F

Saint-Petersburg temperature yesterday

Maximum temperature yesterday: 45 °F (at 10:00 AM)
Minimum temperature yesterday: 34 °F (at 12:00 AM)
Average temperature yesterday: 40 °F

Past Weeks' High & Low Weather Summary

 TemperatureHumidityPressure
High68 °F (Apr 12, 1:00 PM)100% (Apr 14, 12:00 AM)30.01 "Hg (Apr 14, 12:00 AM)
Low30 °F (Apr 19, 5:00 AM)29% (Apr 18, 2:00 PM)29.12 "Hg (Apr 23, 12:00 PM)
Average40 °F73%29.65 "Hg
* Reported Apr 12 7:00 AM — Apr 27 7:00 AM, Saint-Petersburg, Weather by CustomWeather, © 2015

Note: Actual official high and low records may vary slightly from our data, if they occured in-between our weather recording intervals... More about our weather records

Advertising

Saint-Petersburg weather history for previous 24 hours

 ConditionsComfort  
Time TempWeatherWind HumidityBarometerVisibility
7:00 AM
Mon, Apr 27
45 °FFog.6 mph93%29.71 "Hg2 mi
6:30 AM43 °FFog.1 mph100%29.71 "Hg1 mi
6:00 AM43 °FQuite cool.1 mph100%29.68 "Hg1 mi
5:30 AM43 °FQuite cool.3 mph100%29.68 "Hg1 mi
5:00 AM43 °FQuite cool.3 mph100%29.68 "Hg1 mi
4:30 AM45 °FFog.6 mph93%29.68 "Hg2 mi
4:00 AM43 °FQuite cool.3 mph100%29.68 "Hg1 mi
3:30 AM43 °FFog.3 mph100%29.68 "Hg2 mi
3:00 AM43 °FFog.No wind93%29.68 "Hg3 mi
2:30 AM41 °FLow clouds.No wind100%29.68 "Hg4 mi
2:00 AM41 °FLow clouds.No wind100%29.65 "Hg6 mi
1:30 AM41 °FLow clouds.1 mph100%29.65 "HgN/A
1:00 AM41 °FLow clouds.1 mph100%29.65 "Hg6 mi
12:30 AM41 °FLow clouds.3 mph100%29.65 "HgN/A
12:00 AM41 °FLow clouds.3 mph93%29.65 "Hg6 mi
11:30 PM
Sun, Apr 26
41 °FLow clouds.3 mph93%29.65 "HgN/A
11:00 PM41 °FLow clouds.6 mph93%29.65 "HgN/A
10:30 PM41 °FMostly cloudy.6 mph93%29.65 "HgN/A
10:00 PM41 °FMostly cloudy.6 mph93%29.65 "HgN/A
9:30 PM41 °FMostly cloudy.6 mph93%29.65 "HgN/A
9:00 PM41 °FLight rain. Mostly cloudy.6 mph93%29.65 "HgN/A
8:30 PM41 °FLight rain. Mostly cloudy.6 mph93%29.65 "Hg6 mi
8:00 PM41 °FLight rain. Mostly cloudy.8 mph93%29.65 "HgN/A
7:30 PM41 °FLight rain. Mostly cloudy.10 mph93%29.65 "Hg6 mi
7:00 PM41 °FLight rain. Mostly cloudy.13 mph93%29.65 "HgN/A
6:30 PM41 °FLight rain. Mostly cloudy.13 mph93%29.65 "HgN/A
6:00 PM41 °FLight rain. Mostly cloudy.13 mph93%29.68 "HgN/A
5:30 PM41 °FLight rain. More clouds than sun.15 mph93%29.68 "HgN/A
5:00 PM41 °FLight rain. More clouds than sun.17 mph93%29.68 "HgN/A
4:30 PM41 °FLight rain. More clouds than sun.15 mph93%29.68 "HgN/A
4:00 PM43 °FLight rain. Low clouds.15 mph87%29.68 "HgN/A
3:30 PM43 °FLight rain. Overcast.17 mph87%29.68 "HgN/A
3:00 PM43 °FLight rain. Mostly cloudy.17 mph81%29.71 "HgN/A
2:30 PM43 °FLight rain. Mostly cloudy.15 mph87%29.71 "HgN/A
2:00 PM43 °FLight rain. Mostly cloudy.15 mph81%29.71 "HgN/A
1:30 PM45 °FLight rain. Mostly cloudy.17 mph71%29.71 "HgN/A
1:00 PM45 °FLight rain. Mostly cloudy.17 mph76%29.74 "HgN/A
12:30 PM45 °FMostly cloudy.15 mph66%29.74 "HgN/A
12:00 PM45 °FLight rain. Mostly cloudy.15 mph66%29.74 "HgN/A
11:30 AM45 °FLight rain. Mostly cloudy.15 mph66%29.77 "HgN/A
11:00 AM45 °FOvercast.15 mph61%29.77 "HgN/A
10:30 AM45 °FOvercast.13 mph57%29.77 "HgN/A
10:00 AM45 °FMostly cloudy.10 mph57%29.77 "HgN/A
9:30 AM43 °FMostly cloudy.10 mph61%29.77 "HgN/A
9:00 AM43 °FSunny.10 mph61%29.77 "Hg10 mi
8:30 AM41 °FSunny.10 mph70%29.80 "Hg10 mi
8:00 AM39 °FSunny.10 mph75%29.80 "Hg10 mi
Weather by CustomWeather, © 2015

See weather overviewHow to use our weather pages